SP3WRO-13 Weather Reports


time (UTC)temp
F
wind
direction
speed
knots
gust
knots
rain 1hr
in
rain 24hr
in
rain mn
in
humidity
%
barometer
mb
20260508023026 44 114 0.0 3.5 0.00 0.00 0.00 93 1015.5
20260508021526 44 270 0.0 2.6 0.00 0.00 0.00 93 1015.3
20260508014526 45 354 0.0 1.7 0.00 0.00 0.00 94 1015.3
20260508013026 45 17 0.0 2.6 0.00 0.00 0.00 94 1015.2
20260508011526 45 318 0.0 1.7 0.00 0.00 0.00 94 1015.2
20260508010026 45 342 0.0 0.0 0.00 0.00 0.00 94 1015.2
20260508004526 45 337 0.0 0.0 0.00 0.00 0.00 94 1015.2
20260508003026 45 306 0.0 2.6 0.00 0.00 0.00 94 1015.2
20260508001526 45 18 0.0 1.7 0.00 0.00 0.00 93 1015.3
20260508000022 45 12 0.0 2.6 0.00 0.00 0.00 93 1015.3
20260507234522 45 24 0.0 2.6 0.00 0.00 0.00 93 1015.3
20260507233022 45 294 0.0 1.7 0.00 0.00 0.00 93 1015.3
20260507231522 45 18 0.9 3.5 0.00 0.00 0.00 93 1015.4
20260507230022 45 54 0.0 1.7 0.00 0.00 0.00 94 1015.4
20260507224522 45 6 0.0 1.7 0.00 0.00 0.00 94 1015.3
20260507223021 45 60 0.0 1.7 0.00 0.00 0.00 93 1015.3
20260507221521 45 24 0.0 1.7 0.00 0.00 0.00 93 1015.2
20260507220021 45 270 0.0 3.5 0.00 0.00 0.00 94 1015.1
20260507214521 45 330 0.0 0.9 0.00 0.00 0.00 94 1015.0
20260507213022 45 0 0.0 1.7 0.00 0.00 0.00 93 1014.9
20260507211521 45 12 0.0 2.6 0.00 0.00 0.00 93 1014.9
20260507210021 45 312 0.0 2.6 0.00 0.00 0.00 93 1014.8
20260507204521 45 318 0.0 2.6 0.00 0.00 0.00 93 1014.7
20260507203021 45 294 0.0 1.7 0.00 0.00 0.00 93 1014.4
20260507201521 45 293 0.0 2.6 0.00 0.00 0.00 93 1014.4
20260507200021 45 306 0.0 3.5 0.00 0.00 0.00 94 1014.3
20260507194521 45 294 0.0 1.7 0.00 0.00 0.00 93 1014.1
20260507193021 45 330 0.0 2.6 0.00 0.00 0.00 93 1014.1
20260507191520 46 10 0.0 2.6 0.00 0.00 0.00 93 1014.0
20260507190020 45 48 0.0 3.5 0.00 0.00 0.00 93 1013.7
20260507184520 46 0 0.0 2.6 0.00 0.00 0.00 93 1013.6
20260507183020 46 342 0.0 3.5 0.00 0.00 0.00 92 1013.5
20260507181520 46 48 0.9 3.5 0.00 0.00 0.00 92 1013.1
20260507180020 46 294 0.9 3.5 0.00 0.00 0.00 92 1013.0
20260507174520 46 354 0.9 3.5 0.00 0.00 0.00 92 1013.0
20260507173020 46 4 0.9 3.5 0.00 0.00 0.00 92 1013.0
20260507171520 46 66 0.9 4.3 0.00 0.00 0.00 92 1012.8
20260507170020 46 276 0.9 3.5 0.00 0.00 0.00 92 1012.7
20260507164520 47 24 0.9 2.6 0.00 0.00 0.00 92 1012.6
20260507163020 47 271 0.9 3.5 0.00 0.00 0.00 92 1012.6
20260507161520 47 300 0.0 3.5 0.00 0.00 0.00 93 1012.6
20260507160020 47 18 0.9 3.5 0.00 0.00 0.00 92 1012.7
20260507154520 47 300 0.9 3.5 0.00 0.00 0.00 93 1012.6
20260507153020 47 342 1.7 3.5 0.00 0.00 0.00 91 1012.5
20260507151520 47 318 0.9 3.5 0.00 0.00 0.00 91 1012.5
20260507150020 47 24 0.9 3.5 0.00 0.00 0.00 91 1012.5
20260507144517 47 42 0.9 3.5 0.00 0.00 0.00 93 1012.3
20260507143017 47 42 0.9 3.5 0.00 0.00 0.00 92 1012.3
20260507141517 46 258 0.0 2.6 0.00 0.00 0.00 92 1012.3
20260507140017 47 87 1.7 4.3 0.00 0.00 0.00 93 1012.4
20260507134517 47 324 0.9 4.3 0.00 0.00 0.00 92 1012.2
20260507133017 47 90 0.9 3.5 0.01 0.00 0.00 93 1012.1
20260507131517 47 330 0.9 3.5 0.02 0.00 0.00 92 1012.0
20260507130017 47 24 0.9 3.5 0.05 0.00 0.00 92 1012.0
20260507124517 46 281 0.0 3.5 0.07 0.00 0.00 93 1011.9
20260507123017 46 34 0.9 3.5 0.07 0.00 0.00 93 1011.8
20260507120014 47 86 0.9 3.5 0.02 0.00 0.00 89 1011.5
20260507114514 47 18 0.9 4.3 0.01 0.00 0.00 87 1011.4
20260507113014 47 42 1.7 3.5 0.00 0.00 0.00 86 1011.3
20260507111514 47 234 1.7 4.3 0.00 0.00 0.00 87 1011.3
20260507110015 47 11 2.6 7.0 0.00 0.00 0.00 88 1011.2
20260507104514 47 0 1.7 4.3 0.00 0.00 0.00 88 1010.9
20260507103014 47 318 0.9 4.3 0.00 0.00 0.00 89 1010.9
20260507101514 46 72 0.9 3.5 0.02 0.00 0.00 91 1010.8
20260507100014 46 48 1.7 5.2 0.02 0.00 0.00 92 1010.6
20260507094514 46 342 0.9 3.5 0.02 0.00 0.00 91 1010.5
20260507093014 46 348 0.9 3.5 0.01 0.00 0.00 91 1010.3
20260507091513 45 78 1.7 5.2 0.01 0.00 0.00 91 1010.2
20260507090012 45 306 1.7 5.2 0.01 0.00 0.00 90 1010.0
20260507084512 46 42 1.7 6.1 0.00 0.00 0.00 87 1009.7
20260507083012 46 342 1.7 5.2 0.00 0.00 0.00 85 1009.5
20260507081512 46 66 1.7 3.5 0.00 0.00 0.00 85 1009.4
20260507080012 46 90 1.7 5.2 0.00 0.00 0.00 85 1009.2
20260507074512 46 0 0.9 4.3 0.00 0.00 0.00 84 1009.0
20260507073012 46 48 0.9 3.5 0.00 0.00 0.00 86 1008.9
20260507071512 45 84 1.7 5.2 0.00 0.00 0.00 87 1008.9
20260507070013 46 48 1.7 7.8 0.00 0.00 0.00 86 1008.7
20260507064512 46 324 1.7 5.2 0.00 0.00 0.00 85 1008.6
20260507063012 46 54 1.7 4.3 0.00 0.00 0.00 86 1008.3
20260507061512 46 5 1.7 4.3 0.00 0.00 0.00 86 1008.4
20260507060012 45 0 1.7 5.2 0.00 0.00 0.00 87 1008.3
20260507054512 45 343 1.7 8.7 0.00 0.00 0.00 87 1008.0
20260507053012 45 318 2.6 5.2 0.00 0.00 0.00 88 1007.9
20260507051512 45 54 1.7 3.5 0.00 0.00 0.00 89 1007.8
20260507050011 44 330 1.7 5.2 0.00 0.00 0.00 90 1007.6
20260507044511 44 354 1.7 5.2 0.00 0.00 0.00 90 1007.7
20260507043011 44 54 0.9 4.3 0.00 0.00 0.00 91 1007.6
20260507041511 44 306 0.9 3.5 0.00 0.00 0.00 91 1007.4
20260507040011 44 102 1.7 5.2 0.00 0.00 0.00 92 1007.2
20260507034511 44 264 0.9 5.2 0.00 0.00 0.00 91 1007.0
20260507033011 44 270 1.7 5.2 0.00 0.00 0.00 90 1007.1
20260507031511 44 6 1.7 7.8 0.00 0.00 0.00 91 1006.9
20260507030011 44 336 1.7 5.2 0.00 0.00 0.00 91 1006.6
20260507024511 44 24 2.6 5.2 0.00 0.00 0.00 91 1006.4